JILIN-01 KUANFU 01C (52443 NORAD) Tracking and Keplerian Element Data

This shows tracking and keplerian element data for the satellite.

Feedback or suggestion? Click here.




ElementValue
Catalog52443
NameJILIN-01 KUANFU 01C
Epoch Orbit1027
Epoch Day193.17948715
Epoch Year2022
RAAN257.9019
Inclination97.6811
Eccentricity0.0014072
Argument of Perigee43.0564
Mean Anonmoly41.5333
Mean Motion15.09687254
Decay Rate2.185E-05
L11 52443U 22048A 22193.17948715 .00002185 00000+0 13942-3 0 9990
L22 52443 97.6811 257.9019 0014072 43.0564 41.5333 15.09687254 10277

Live tracking and technical data element details for JILIN-01 KUANFU 01C (NORAD 52443). JILIN-01 KUANFU 01C can be tracked NOW for your location showing map with azimuth and elevation plus other details from your city location.

Track the satellite on the map from your city or location and see movement details for azimuth, elevation, latitude, longitude, range, height, and movement on the map or in text.







IsCatalogInMostPopularTable: catalog: 52443, numindb: 6
Update: records affected: 1



GetName: 52443 JILIN-01 KUANFU 01C

Hit Count: updated at: Sun, 14 Aug 2022 00:40:18 GMT